Terminal Aerodrome Forecast
Issued by NWS King Salmon, AK

Home | Current Version | Previous Version | Text Only | Print | Product List | Glossary On
Versions: 1 2 3 4 5 6 7 8 9 10 11 12 13 14 15 16 17 18 19 20 21 22 23 24 25 26 27 28 29 30 31 32 33 34 35 36 37 38 39
000
FTAK31 PANC 251732
TAFAKN
TAF
PAKN 251732Z 2518/2618 18009KT P6SM -SHRA SCT020 OVC050
     FM252200 23008KT P6SM -SHRA SCT025 BKN050
     FM260700 VRB04KT P6SM SCT035 BKN060=

USA.gov is the U.S. government's official web portal to all federal, state and local government web resources and services.